Location: Newark
(21.0333°N, 105.8500°E)
Time: 19:07:17
(UTC+00:00)

Envisat - Visible Passes

Search period start: 08 December 2019 00:00
Search period end: 18 December 2019 00:00
Orbit: 764 x 766 km, 98.1° (Epoch: 08 December)

Date Brightness Start Highest point End Pass type
(mag) Time Alt. Az. Time Alt. Az. Time Alt. Az.
08 Dec 5.5 12:05:17 10° SW 12:09:01 21° W 12:12:46 10° NW visible
08 Dec 5.7 22:45:41 10° NE 22:49:41 23° E 22:53:39 10° SSE visible
09 Dec 3.7 11:27:15 10° S 11:32:12 56° W 11:37:10 10° NNW visible
10 Dec 3.1 10:50:36 10° SSE 10:55:31 54° ENE 11:00:27 10° N visible
11 Dec 5.1 11:53:27 10° SSW 11:57:43 28° W 12:02:01 10° NW visible
11 Dec 6.0 22:35:03 10° NE 22:38:22 17° E 22:41:40 10° SE visible
12 Dec 3.2 11:15:53 10° S 11:20:56 75° WSW 11:25:59 10° NNW visible
13 Dec 3.4 10:39:35 10° SE 10:44:17 40° ENE 10:49:00 10° N visible
13 Dec 6.0 12:20:47 10° SW 12:23:17 14° W 12:25:47 10° WNW visible
13 Dec 5.0 22:59:19 10° NE 23:03:55 35° E 23:08:30 10° SSE visible
14 Dec 4.5 11:41:47 10° SSW 11:46:25 37° W 11:51:04 10° NNW visible
14 Dec 6.2 22:24:50 10° ENE 22:27:03 13° E 22:29:15 10° ESE visible
15 Dec 2.9 11:04:37 10° SSE 11:09:41 82° ENE 11:14:45 10° N visible
16 Dec 5.7 12:08:29 10° SW 12:11:58 19° W 12:15:27 10° NW visible
16 Dec 5.5 22:48:26 10° NE 22:52:37 26° E 22:56:48 10° SSE visible
17 Dec 3.9 11:30:15 10° S 11:35:08 49° W 11:40:02 10° NNW visible
